Home > Time Zones > World Clock > Weather > U.S.A. > Nome > Past weeks

Flag for U.S.A. Weather past 2 weeks in Nome, Alaska, U.S.A.

Now
31 °F

Passing clouds.


Feels Like: 23 °F
Forecast: 25 / 34 °F
Wind: 8 mph from Northwest

Location: Nome Airport


UV Index: 0 (Low)

Visibility: 10 mi


Pressure: 29.46 "Hg

Humidity: 76%

Dew point: 24 °F

Location of NomeLocation

Historic Weather in Nome

°F

Nome temperature yesterday

Maximum temperature yesterday: 37 °F (at 12:53 PM)
Minimum temperature yesterday: 24 °F (at 7:53 AM)
Average temperature yesterday: 31 °F

Past Weeks' High & Low Weather Summary

 TemperatureHumidityPressure
High42 °F (Apr 16, 3:53 PM)100% (Apr 12, 10:53 PM)30.19 "Hg (Apr 12, 10:53 PM)
Low-4 °F (Apr 8, 4:53 AM)36% (Apr 3, 1:53 PM)29.45 "Hg (Apr 17, 10:53 PM)
Average21 °F73%29.82 "Hg
* Reported Apr 3 1:53 AM — Apr 18 1:53 AM, Nome, Weather by CustomWeather, © 2014

Note: Actual official high and low records may vary slightly from our data, if they occured in-between our weather recording intervals... More about our weather records

Advertising

Historic Weather Conditions — Data for Previous 24 hours

 ConditionsComfort  
Time TempWeatherWind HumidityBarometerVisibility
1:53 AM
Apr 18
31 °FPassing clouds.8 mph76%29.46 "Hg10 mi
12:53 AM31 °FPassing clouds.No wind76%29.46 "Hg10 mi
11:53 PM
Apr 17
31 °FPassing clouds.8 mph76%29.46 "Hg10 mi
10:53 PM30 °FScattered clouds.No wind89%29.45 "Hg10 mi
9:53 PM32 °FBroken clouds.No wind82%29.47 "Hg10 mi
8:53 PM33 °FPartly sunny.6 mph72%29.46 "Hg10 mi
7:53 PM34 °FBroken clouds.3 mph67%29.47 "Hg10 mi
6:53 PM32 °FBroken clouds.3 mph79%29.50 "Hg10 mi
5:53 PM32 °FScattered clouds.3 mph82%29.51 "Hg10 mi
4:53 PM35 °FScattered clouds.7 mph61%29.52 "Hg10 mi
3:53 PM33 °FSunny.3 mph78%29.54 "Hg10 mi
2:53 PM31 °FScattered clouds.5 mph85%29.55 "Hg10 mi
1:53 PM34 °FScattered clouds.6 mph82%29.56 "Hg10 mi
12:53 PM37 °FScattered clouds.5 mph60%29.58 "Hg10 mi
11:53 AM30 °FScattered clouds.3 mph82%29.59 "Hg10 mi
10:53 AM31 °FScattered clouds.No wind76%29.60 "Hg10 mi
9:53 AM28 °FPassing clouds.No wind81%29.62 "Hg10 mi
8:53 AM27 °FPassing clouds.No wind81%29.62 "Hg10 mi
7:53 AM24 °FPassing clouds.No wind88%29.63 "Hg10 mi
6:53 AM26 °FPassing clouds.No wind84%29.64 "Hg10 mi
5:53 AM27 °FClear.No wind78%29.66 "Hg10 mi
4:53 AM28 °FClear.6 mph75%29.67 "Hg10 mi
3:53 AM30 °FClear.10 mph69%29.68 "Hg10 mi
Weather by CustomWeather, © 2014

See weather overview